| time (UTC) | temp F | wind direction | speed MPH | gust MPH | rain 1hr in | rain 24hr in | rain mn in | humidity % | barometer mb |
| 20260831220044 | 0 | 188 | 0.0 | 3.0 | 0.00 | 0.00 | 0.00 | 1015.8 | |
| 20260831214544 | 0 | 204 | 2.0 | 8.0 | 0.00 | 0.00 | 0.00 | 1015.3 | |
| 20260831213039 | 0 | 200 | 0.0 | 3.0 | 0.00 | 0.00 | 0.00 | 1016.0 | |
| 20260831211530 | 0 | 215 | 0.0 | 3.0 | 0.00 | 0.00 | 0.00 | 1016.5 | |
| 20260831210024 | 0 | 214 | 0.0 | 0.0 | 0.00 | 0.00 | 0.00 | 1016.5 | |
| 20260831204520 | 0 | 214 | 0.0 | 0.0 | 0.00 | 0.00 | 0.00 | 1016.8 | |
| 20260831203017 | 0 | 214 | 0.0 | 0.0 | 0.00 | 0.00 | 0.00 | 1017.0 | |
| 20260831201522 | 0 | 214 | 0.0 | 3.0 | 0.00 | 0.00 | 0.00 | 1017.2 | |
| 20260831200011 | 0 | 317 | 0.0 | 3.0 | 0.00 | 0.00 | 0.00 | 1017.5 | |
| 20260831194505 | 0 | 228 | 2.0 | 9.0 | 0.00 | 0.00 | 0.00 | 1017.9 | |
| 20260831193004 | 0 | 272 | 1.0 | 4.0 | 0.00 | 0.00 | 0.00 | 1018.1 | |
| 20260831191602 | 0 | 257 | 1.0 | 6.0 | 0.00 | 0.00 | 0.00 | 1018.2 | |
| 20260831190032 | 0 | 270 | 1.0 | 7.0 | 0.00 | 0.00 | 0.00 | 1018.2 | |
| 20260831184532 | 0 | 249 | 0.0 | 2.0 | 0.00 | 0.00 | 0.00 | 1018.2 | |
| 20260831183032 | 0 | 249 | 0.0 | 3.0 | 0.00 | 0.00 | 0.00 | 1018.4 | |
| 20260831181529 | 0 | 262 | 2.0 | 9.0 | 0.00 | 0.00 | 0.00 | 1018.6 | |
| 20260831180027 | 0 | 187 | 2.0 | 6.0 | 0.00 | 0.00 | 0.00 | 1018.7 | |
| 20260831174529 | 0 | 231 | 2.0 | 10.0 | 0.00 | 0.00 | 0.00 | 1018.7 | |
| 20260831173023 | 0 | 178 | 2.0 | 7.0 | 0.00 | 0.00 | 0.00 | 1018.9 | |
| 20260831171519 | 0 | 192 | 1.0 | 9.0 | 0.00 | 0.00 | 0.00 | 1018.9 | |
| 20260831170032 | 0 | 189 | 2.0 | 7.0 | 0.00 | 0.00 | 0.00 | 1018.9 | |
| 20260831164609 | 0 | 178 | 3.0 | 7.0 | 0.00 | 0.00 | 0.00 | 1019.0 | |
| 20260831163002 | 0 | 185 | 2.0 | 6.0 | 0.00 | 0.00 | 0.00 | 1019.1 | |
| 20260831161558 | 0 | 219 | 1.0 | 8.0 | 0.00 | 0.00 | 0.00 | 1019.2 | |
| 20260831160053 | 0 | 170 | 1.0 | 7.0 | 0.00 | 0.00 | 0.00 | 1019.2 | |
| 20260831154549 | 0 | 348 | 1.0 | 6.0 | 0.00 | 0.00 | 0.00 | 1019.0 | |
| 20260831153042 | 0 | 215 | 3.0 | 8.0 | 0.00 | 0.00 | 0.00 | 1019.0 | |
| 20260831151539 | 0 | 234 | 1.0 | 4.0 | 0.00 | 0.00 | 0.00 | 1019.0 | |
| 20260831150034 | 0 | 232 | 0.0 | 4.0 | 0.00 | 0.00 | 0.00 | 1018.9 | |
| 20260831144529 | 0 | 178 | 0.0 | 2.0 | 0.00 | 0.00 | 0.00 | 1018.8 | |
| 20260831143058 | 0 | 200 | 0.0 | 0.0 | 0.00 | 0.00 | 0.00 | 1018.7 | |
| 20260831141550 | 0 | 199 | 0.0 | 1.0 | 0.00 | 0.00 | 0.00 | 1018.6 | |
| 20260831140052 | 0 | 199 | 0.0 | 1.0 | 0.00 | 0.00 | 0.00 | 1018.6 | |
| 20260831134542 | 0 | 189 | 1.0 | 3.0 | 0.00 | 0.00 | 0.00 | 1018.6 | |
| 20260831133040 | 0 | 194 | 1.0 | 3.0 | 0.00 | 0.00 | 0.00 | 1018.7 | |
| 20260831131530 | 0 | 207 | 0.0 | 2.0 | 0.00 | 0.00 | 0.00 | 1018.7 | |
| 20260831130101 | 0 | 214 | 0.0 | 3.0 | 0.00 | 0.00 | 0.00 | 1018.7 | |
| 20260831124604 | 0 | 223 | 0.0 | 1.0 | 0.00 | 0.00 | 0.00 | 1018.6 | |
| 20260831123046 | 0 | 223 | 0.0 | 0.0 | 0.00 | 0.00 | 0.00 | 1018.6 | |
| 20260831121545 | 0 | 223 | 0.0 | 0.0 | 0.00 | 0.00 | 0.00 | 1018.5 | |
| 20260831120038 | 0 | 224 | 0.0 | 0.0 | 0.00 | 0.00 | 0.00 | 1018.4 | |
| 20260831114537 | 0 | 224 | 0.0 | 0.0 | 0.00 | 0.00 | 0.00 | 1018.3 | |
| 20260831113035 | 0 | 223 | 0.0 | 0.0 | 0.00 | 0.00 | 0.00 | 1018.3 | |
| 20260831111538 | 0 | 223 | 0.0 | 0.0 | 0.00 | 0.00 | 0.00 | 1018.3 | |
| 20260831110034 | 0 | 223 | 0.0 | 0.0 | 0.00 | 0.00 | 0.00 | 1018.0 | |
| 20260831104540 | 0 | 224 | 0.0 | 0.0 | 0.00 | 0.00 | 0.00 | 1017.8 | |
| 20260831103031 | 0 | 223 | 0.0 | 0.0 | 0.00 | 0.00 | 0.00 | 1017.9 | |
| 20260831101531 | 0 | 223 | 0.0 | 0.0 | 0.00 | 0.00 | 0.00 | 1017.7 | |
| 20260831100031 | 0 | 223 | 0.0 | 0.0 | 0.00 | 0.00 | 0.00 | 1017.7 | |
| 20260831094532 | 0 | 223 | 0.0 | 0.0 | 0.00 | 0.00 | 0.00 | 1017.6 | |
| 20260831093053 | 0 | 224 | 0.0 | 0.0 | 0.00 | 0.00 | 0.00 | 1017.8 | |
| 20260831091548 | 0 | 223 | 0.0 | 0.0 | 0.00 | 0.00 | 0.00 | 1017.9 | |
| 20260831090042 | 0 | 223 | 0.0 | 0.0 | 0.00 | 0.00 | 0.00 | 1017.8 | |
| 20260831084542 | 0 | 223 | 0.0 | 0.0 | 0.00 | 0.00 | 0.00 | 1017.6 | |
| 20260831083044 | 0 | 223 | 0.0 | 0.0 | 0.00 | 0.00 | 0.00 | 1017.5 | |
| 20260831081543 | 0 | 223 | 0.0 | 0.0 | 0.00 | 0.00 | 0.00 | 1017.6 | |
| 20260831080051 | 0 | 223 | 0.0 | 0.0 | 0.00 | 0.00 | 0.00 | 1017.3 | |
| 20260831074529 | 0 | 223 | 0.0 | 0.0 | 0.00 | 0.00 | 0.00 | 1017.4 | |
| 20260831073026 | 0 | 223 | 0.0 | 0.0 | 0.00 | 0.00 | 0.00 | 1017.3 | |
| 20260831071520 | 0 | 223 | 0.0 | 0.0 | 0.00 | 0.00 | 0.00 | 1017.5 | |
| 20260831070013 | 0 | 223 | 0.0 | 0.0 | 0.00 | 0.00 | 0.00 | 1017.5 | |
| 20260831064508 | 0 | 223 | 0.0 | 0.0 | 0.00 | 0.00 | 0.00 | 1017.7 | |
| 20260831063004 | 0 | 223 | 0.0 | 0.0 | 0.00 | 0.00 | 0.00 | 1017.7 | |
| 20260831061600 | 0 | 223 | 0.0 | 0.0 | 0.00 | 0.00 | 0.00 | 1017.8 | |
| 20260831060055 | 0 | 223 | 0.0 | 0.0 | 0.00 | 0.00 | 0.00 | 1017.9 | |
| 20260831054551 | 0 | 223 | 0.0 | 0.0 | 0.00 | 0.00 | 0.00 | 1018.1 | |
| 20260831053051 | 0 | 223 | 0.0 | 0.0 | 0.00 | 0.00 | 0.00 | 1018.2 | |
| 20260831051553 | 0 | 223 | 0.0 | 0.0 | 0.00 | 0.00 | 0.00 | 1018.3 | |
| 20260831050050 | 0 | 223 | 0.0 | 0.0 | 0.00 | 0.00 | 0.00 | 1018.2 | |
| 20260831044521 | 0 | 224 | 0.0 | 0.0 | 0.00 | 0.00 | 0.00 | 1018.2 | |
| 20260831043016 | 0 | 224 | 0.0 | 0.0 | 0.00 | 0.00 | 0.00 | 1018.3 | |
| 20260831041509 | 0 | 223 | 0.0 | 0.0 | 0.00 | 0.00 | 0.00 | 1018.3 | |
| 20260831040005 | 0 | 223 | 0.0 | 0.0 | 0.00 | 0.00 | 0.00 | 1018.4 | |
| 20260831034604 | 0 | 223 | 0.0 | 0.0 | 0.00 | 0.00 | 0.00 | 1018.2 | |
| 20260831033100 | 0 | 223 | 0.0 | 0.0 | 0.00 | 0.00 | 0.00 | 1018.3 | |
| 20260831031549 | 0 | 223 | 0.0 | 0.0 | 0.00 | 0.00 | 0.00 | 1018.3 | |
| 20260831030047 | 0 | 223 | 0.0 | 0.0 | 0.00 | 0.00 | 0.00 | 1018.2 | |
| 20260831024542 | 0 | 224 | 0.0 | 0.0 | 0.00 | 0.00 | 0.00 | 1018.2 | |
| 20260831023037 | 0 | 223 | 0.0 | 0.0 | 0.00 | 0.00 | 0.00 | 1018.3 | |
| 20260831021537 | 0 | 223 | 0.0 | 0.0 | 0.00 | 0.00 | 0.00 | 1018.2 | |
| 20260831020028 | 0 | 224 | 0.0 | 0.0 | 0.00 | 0.00 | 0.00 | 1018.2 | |
| 20260831014526 | 0 | 223 | 0.0 | 0.0 | 0.00 | 0.00 | 0.00 | 1018.2 | |
| 20260831013025 | 0 | 223 | 0.0 | 0.0 | 0.00 | 0.00 | 0.00 | 1018.2 | |
| 20260831011515 | 0 | 223 | 0.0 | 0.0 | 0.00 | 0.00 | 0.00 | 1018.2 | |
| 20260831010015 | 0 | 224 | 0.0 | 0.0 | 0.00 | 0.00 | 0.00 | 1017.9 | |
| 20260831004503 | 0 | 223 | 0.0 | 0.0 | 0.00 | 0.00 | 0.00 | 1017.8 | |
| 20260831003059 | 0 | 223 | 0.0 | 0.0 | 0.00 | 0.00 | 0.00 | 1017.7 | |
| 20260831001603 | 0 | 223 | 0.0 | 1.0 | 0.00 | 0.00 | 0.00 | 1017.7 | |
| 20260831000048 | 0 | 223 | 0.0 | 0.0 | 0.00 | 0.00 | 0.00 | 1017.6 | |
| 20260830234544 | 0 | 223 | 0.0 | 0.0 | 0.00 | 0.00 | 0.00 | 1017.6 | |
| 20260830233039 | 0 | 223 | 0.0 | 0.0 | 0.00 | 0.00 | 0.00 | 1017.4 | |
| 20260830231533 | 0 | 223 | 0.0 | 0.0 | 0.00 | 0.00 | 0.00 | 1017.3 | |
| 20260830230027 | 0 | 223 | 0.0 | 0.0 | 0.00 | 0.00 | 0.00 | 1017.2 | |
| 20260830224523 | 0 | 223 | 0.0 | 1.0 | 0.00 | 0.00 | 0.00 | 1017.1 | |
| 20260830223019 | 0 | 221 | 0.0 | 5.0 | 0.00 | 0.00 | 0.00 | 1016.9 | |
| 20260830221513 | 0 | 201 | 1.0 | 5.0 | 0.00 | 0.00 | 0.00 | 1016.7 |